Regional Weather Roundup
Issued by NWS Upton, NY

Current Version | Previous Version | Graphics & Text | Print | Product List | Glossary Off
Versions: 1 2 3 4 5 6 7 8 9 10 11 12 13 14 15 16 17 18 19 20 21 22 23 24 25 26 27 28 29 30 31 32 33 34 35 36 37 38 39 40 41 42 43 44 45 46 47 48 49 50

000
ASUS41 KOKX 241705
RWROKX
REGIONAL WEATHER ROUNDUP
NATIONAL WEATHER SERVICE NEW YORK NY
100 PM EDT THU JUL 24 2014

NOTE: "FAIR" INDICATES FEW OR NO CLOUDS BELOW 12,000 FEET WITH NO
SIGNIFICANT WEATHER AND/OR OBSTRUCTIONS TO VISIBILITY.

NYZ071-072-176-178-NJZ106-104-241800-
NEW YORK CITY METRO AREA


CITY           SKY/WX    TMP DP  RH WIND       PRES   REMARKS
CENTRAL PARK   CLOUDY    76  61  59 VRB7      29.90S
LAGUARDIA APRT CLOUDY    76  60  57 N12       29.86S
KENNEDY INTL   CLOUDY    78  61  55 N12       29.87S
NEWARK/LIBERTY CLOUDY    77  63  61 N12       29.87S
BRNX BOT. GARD NOT AVBL
TETERBORO      CLOUDY    78  60  53 N9        29.86F
$$

NYZ177-179-078>081-241800-
LONG ISLAND NEW YORK

CITY           SKY/WX    TMP DP  RH WIND       PRES   REMARKS
FARMINGDALE    CLOUDY    76  61  59 N12       29.86F
ISLIP          CLOUDY    79  62  56 NW13      29.83F
SHIRLEY        CLOUDY    80  61  52 N13       29.85S
WESTHAMPTON    CLOUDY    78  63  59 NW10      29.85S
MONTAUK POINT    N/A     76  66  71 NW7       29.83F
$$

NYZ052-065-067-241800-
HUDSON VALLEY

CITY           SKY/WX    TMP DP  RH WIND       PRES   REMARKS
WHITE PLAINS   CLOUDY    74  59  59 N14       29.88S
NEWBURGH       NOT AVBL
MONTGOMERY     MOSUNNY   77  61  57 NE6       29.90S
POUGHKEEPSIE   MOSUNNY   77  60  55 N8        29.88F
ALBANY         PTSUNNY   75  58  55 N6        29.91F
$$

NJZ001-105-106-008-010-013-015-019>022-104-241800-
NEW JERSEY

CITY           SKY/WX    TMP DP  RH WIND       PRES   REMARKS
NEWARK/LIBERTY CLOUDY    77  63  61 N12       29.87S
TETERBORO      CLOUDY    78  60  53 N9        29.86F
CALDWELL       CLOUDY    76  60  57 N6        29.89S
MORRISTOWN     PTSUNNY   77  63  61 NW6       29.89S
SOMERVILLE     PTSUNNY   77  59  53 NW9       29.88S
LINDEN         FAIR      78  62  57 N7        29.89S
SUSSEX         PTSUNNY   78  58  49 N6        29.90F
ANDOVER          N/A     76  58  53 N9        29.91F
TRENTON        CLOUDY    76  59  55 NW10      29.89S
MILLVILLE      CLOUDY    76  64  66 NW8       29.89F
ATLANTIC CITY  CLOUDY    76  65  68 NW7       29.88S
WRIGHTSTOWN    CLOUDY    76  63  65 NW9       29.87S
TOMS RIVER     CLOUDY    77  64  65 W9        29.88S
BELMAR         CLOUDY    79  63  57 NW8       29.87S
$$

PAZ047>061-062-071-241800-
EASTERN PENNSYLVANIA

CITY           SKY/WX    TMP DP  RH WIND       PRES   REMARKS
PHILADELPHIA   CLOUDY    77  60  55 N13       29.90S
ALLENTOWN      PTSUNNY   78  56  46 N13       29.91S
SCRANTON       PTSUNNY   76  49  38 N14G21    29.96S
$$

CTZ002-004>006-009-010-012-RIZ004-006-007-MAZ004-011-015-241800-
SOUTHERN NEW ENGLAND
 IN CT

CITY           SKY/WX    TMP DP  RH WIND       PRES   REMARKS
BRADLEY INTL   PTSUNNY   81  58  45 N9G17     29.84S
HARTFORD       MOSUNNY   80  58  46 N10       29.83F
DANBURY        PTSUNNY   75  57  53 NW12G17   29.89F
WTRBRY/OXFORD  MOSUNNY   73  59  60 N12G17    29.89F
BRIDGEPORT     CLOUDY    78  61  55 N8        29.84F
MERIDEN        PTSUNNY   79  61  53 NW8       29.84F
NEW HAVEN      PTSUNNY   80  62  54 N5        29.83F
CHESTER        FAIR      79  61  53 N10       29.85F
GROTON         CLOUDY    79  67  66 N8        29.81F
WILLIMANTIC    PTSUNNY   79  63  57 NE7       29.84F

 IN RI

CITY           SKY/WX    TMP DP  RH WIND       PRES   REMARKS
PROVIDENCE     CLOUDY    73  65  75 NE12      29.84R
BLOCK ISLAND   CLOUDY    75  66  73 NW6       29.82F
WESTERLY       CLOUDY    79  67  66 VRB7      29.82F

 IN MA

CITY           SKY/WX    TMP DP  RH WIND       PRES   REMARKS
BOSTON         PTSUNNY   70  63  78 E15       29.84S
WORCESTER      PTSUNNY   72  60  66 VRB6      29.87S
WESTFIELD      MOSUNNY   80  58  46 N10       29.85S
PROVINCETOWN   CLOUDY    66  64  94 N8        29.84S
NANTUCKET      CLOUDY    76  68  76 N13       29.80S
$$

ANZ330-335-338-340-345-350-353-355-241800-
COASTAL MARINE OBSERVATIONS


STATION/POSITION TIME  SKY/WX   TEMP    WIND        PRES    VSBY  WAVE
                                AIR SEA DIR/SP/G                  HT/PER
                 (UTC)          (F)     (DEG/KT/KT) (MB)    (MI)  (FT/S)
NY HARB ENTRANCE NOT AVBL
4S FIRE IS       NOT AVBL
23SW MTP         1700            73 71              1009.4          2/ 5
HUDSON CANYON    1700            72 74  340/ 10/ 14 1010.3          3/ 7
EXECUTION ROCKS  1700            75 72  360/ 10/ 14   N/A
WESTERN LI SOUND 1700            74     340/  8/ 12   N/A           0
CENTRAL LI SOUND 1600            72 71  290/  6/  6   N/A           1/ 2
EASTERN LI SOUND 1600            72 67  340/  6/  8   N/A
ROBBINS REEF     1600            74      10/  8/ 11   N/A
$$


>>>>>>>>>>>>>>>>>>>>>>>>>>>> KEY <<<<<<<<<<<<<<<<<<<<<<<<<<<
>                                                          <
>     SKY/WX - SKY CONDITION/PRESENT WEATHER               <
>     TMP    - TEMPERATURE IN FAHRENHEIT                   <
>     DP     - DEWPOINT IN FAHRENHEIT                      <
>     RH     - RELATIVE HUMIDITY IN PERCENT                <
>     WIND   - DIRECTION AND SPEED IN MPH                  <
>     PRES   - MEAN SEA LEVEL PRESSURE IN INCHES OF HG     <
>     WCI    - WIND CHILL INDEX                            <
>     VSB    - VISIBILITY IN MILES                         <
>     HX     - HEAT INDEX                                  <
>     TC     - TEMPERATURE IN CELSIUS                      <
>     VRB    - VARIABLE WIND DIRECTION                     <
>                                                          <
>>>>>>>>>>>>>>>>>>>>>>>>>>>> KEY <<<<<<<<<<<<<<<<<<<<<<<<<<<




USA.gov is the U.S. government's official web portal to all federal, state and local government web resources and services.